Regional Weather Roundup
Issued by NWS

Home | Current Version | Previous Version | Text Only | Print | Product List | Glossary Off
Versions: 1 2 3 4 5 6 7 8 9 10 11 12 13 14 15 16 17 18 19 20 21 22 23 24 25 26 27 28 29 30 31 32 33 34 35 36 37 38 39 40 41 42 43 44 45 46 47 48 49 50

000
ASUS43 KLSX 310807
RWRMO

WEATHER SUMMARY FOR MISSOURI
NATIONAL WEATHER SERVICE SPRINGFIELD MO
300 AM CDT MON AUG 31 2015

NOTE: "FAIR" INDICATES FEW OR NO CLOUDS BELOW 12,000 FEET WITH NO
       SIGNIFICANT WEATHER AND/OR OBSTRUCTIONS TO VISIBILITY.
       CURRENT SKY AND/OR WEATHER CONDITIONS ARE NOT AVAILABLE FOR
       CHILLICOTHE AND FARMINGTON.

MOZ001>031-035>038-043-044-053-054-310900-
...NORTHERN AND WESTERN MISSOURI...

CITY           SKY/WX    TMP DP  RH WIND       PRES   REMARKS
KANSAS CTY INT PTCLDY    72  70  93 SE7       29.96S
KANSAS C DTWN  CLEAR     76  71  85 CALM      29.95S
LEE`S SUMMIT   CLEAR     74  70  87 S7        29.97S
ST JOSEPH      PTCLDY    67  66  97 N5        29.95F FOG
CHILLICOTHE      N/A     72  70  93 CALM      29.98S
KIRKSVILLE     PTCLDY    68  65  90 SE3       30.00F FOG

$$
MOZ066>068-077>081-088>096-101>105-310900-
...SOUTHWEST MISSOURI...

CITY           SKY/WX    TMP DP  RH WIND       PRES   REMARKS
SPRINGFIELD    CLEAR     73  68  84 SE10      30.00S
JOPLIN         CLEAR     71  68  90 MISG      29.97F

$$
MOZ032>034-039>042-045>050-055>058-069>072-310900-
...CENTRAL MISSOURI...

CITY           SKY/WX    TMP DP  RH WIND       PRES   REMARKS
COLUMBIA       CLEAR     71  70  96 S5        30.00S FOG
JEFFERSON CITY CLEAR     71  70  96 SE5       29.99S FOG
ROLLA          CLEAR     73  69  87 S9        30.01S
SEDALIA        CLEAR     71  69  93 S3        29.99F FOG
WHITEMAN AFB   CLEAR     71  71  99 S5        29.97S
WARRENSBURG    CLEAR     72  68  88 S3        29.97S
OSAGE BEACH    CLEAR     72  66  83 SE3       30.00F

$$
MOZ051-052-059>065-310900-
...EAST CENTRAL MISSOURI...

CITY           SKY/WX    TMP DP  RH WIND       PRES   REMARKS
ST LOUIS INTL  PTCLDY    77  70  79 S5        30.01S
SPIRIT OF STL  PTCLDY    71  71 100 CALM      29.99F FOG
ST CHARLES     PTCLDY    72  71  97 NE3       29.99F

$$
MOZ072>076-082>087-097>100-106>115-310900-
...SOUTH CENTRAL AND SOUTHEAST MISSOURI...

CITY           SKY/WX    TMP DP  RH WIND       PRES   REMARKS
CAPE GIRARDEAU MOCLDY    69  67  93 CALM      30.04R
FARMINGTON     CLEAR     70  68  94 S7        30.06S
POPLAR BLUFF   CLEAR     67  66  97 CALM      30.02S FOG
WEST PLAINS    PTCLDY    71  67  87 CALM      30.05S

$$



USA.gov is the U.S. government's official web portal to all federal, state and local government web resources and services.